Theta_e
356 361 365 365 364 363 363 362 362 362 362 362 362 362 362 362 362 363 363 363 363 362 359 356 354 354 354 354 354 356 358 358 357 353 353 353 352 352 355 351 349 347 352
358 361 364 364 364 363 363 363 362 361 361 362 362 362 361 361 362 362 362 362 362 361 357 353 353 354 354 353 353 354 355 357 357 355 353 351 352 351 350 349 349 346 348
358 360 362 364 364 363 362 362 362 361 361 361 361 361 361 361 362 362 362 362 362 358 356 352 353 354 354 353 352 352 353 353 353 355 353 345 345 350 349 348 348 347 347
358 359 360 364 363 363 362 361 361 361 361 361 361 361 361 361 361 361 361 361 359 357 354 352 353 353 353 353 351 352 353 354 353 352 348 348 345 350 350 349 350 349 347
357 358 360 364 363 363 362 361 361 360 360 361 362 362 361 361 360 360 360 359 358 354 352 352 353 354 354 352 351 352 352 351 349 340 336 342 339 350 350 350 350 351 347
357 358 362 363 362 362 362 361 361 360 360 361 361 361 361 361 360 360 359 358 358 354 351 352 353 355 354 352 352 351 348 346 347 334 335 343 339 353 354 353 351 348 348
357 359 361 363 363 362 361 361 361 360 360 360 361 361 361 360 359 359 359 358 357 354 352 351 352 353 354 352 349 346 343 344 335 332 330 341 341 353 356 356 354 351 349
356 358 360 363 363 361 361 361 360 360 359 360 360 360 360 359 359 359 358 358 356 355 352 350 350 348 347 346 344 341 341 343 336 329 328 332 345 353 356 355 354 353 351
357 356 358 360 361 362 361 360 360 359 359 359 358 358 359 359 358 358 357 357 356 354 352 350 347 346 344 343 342 341 342 344 332 330 330 332 350 354 357 356 355 353 352
354 354 356 358 359 358 358 360 360 359 359 358 358 358 358 358 358 358 354 355 356 354 352 349 347 345 343 342 341 342 344 344 333 329 327 330 349 354 357 355 355 355 355
351 352 354 356 357 357 357 359 360 360 359 358 358 358 355 353 353 354 354 355 355 354 352 349 347 345 344 344 343 344 345 332 328 326 326 337 348 353 356 354 354 354 354
349 349 351 353 353 354 358 357 357 357 357 356 355 355 352 350 351 353 353 355 355 354 352 350 348 346 345 331 331 343 334 331 329 327 324 340 350 353 354 350 349 350 351
351 350 349 350 352 352 353 355 355 356 354 356 355 354 350 349 349 350 347 350 349 352 345 346 342 338 333 330 326 323 328 331 328 327 330 342 349 352 354 352 352 353 353
346 348 348 349 350 350 354 353 353 353 353 352 353 352 349 346 345 346 345 344 344 343 340 339 336 334 331 328 325 322 324 328 328 327 328 344 350 353 356 355 354 354 353
327 345 347 348 348 348 348 352 351 351 352 352 352 352 350 347 345 346 344 343 343 341 339 335 334 332 330 328 325 325 325 328 329 330 331 346 351 351 354 356 355 355 355
334 342 346 346 346 343 343 348 349 350 351 351 351 350 351 347 346 345 344 342 341 340 339 334 331 330 328 326 324 326 327 329 331 332 336 340 350 349 351 354 356 356 356
320 343 345 346 341 335 339 347 347 347 349 349 350 351 351 350 347 346 342 342 342 340 337 334 330 328 326 328 327 326 328 331 335 337 337 336 342 348 348 351 354 356 357
326 337 340 345 340 333 338 347 348 344 343 347 347 349 351 352 350 345 344 341 341 339 336 334 331 327 328 327 327 330 331 333 337 339 340 342 339 341 346 350 352 354 356
321 323 329 333 337 338 345 350 349 350 346 344 344 344 347 349 350 347 344 344 340 339 336 333 329 325 325 330 331 330 331 335 338 341 340 341 342 343 342 346 350 350 353
313 313 314 318 325 324 325 335 347 346 349 346 346 343 344 344 345 345 345 342 341 338 337 332 332 330 328 329 332 331 329 332 337 338 342 343 342 341 341 341 341 345 349
320 321 321 323 322 324 326 327 334 340 343 344 344 346 344 343 344 342 344 343 341 339 338 335 334 333 331 329 327 326 328 331 332 335 340 342 342 343 341 341 340 341 343
314 316 318 320 320 323 326 328 332 330 335 343 346 346 345 344 343 342 341 342 343 341 339 335 334 330 331 331 328 323 320 324 330 337 338 340 340 340 339 340 341 341 339
313 317 317 316 317 318 322 321 321 322 323 326 331 337 342 344 345 344 344 342 343 343 340 337 335 334 330 328 330 324 319 317 321 332 336 339 338 336 337 339 341 343 341
312 317 316 316 316 320 319 317 318 318 316 320 322 329 333 338 340 344 345 344 343 344 342 340 338 336 333 329 328 331 326 323 320 319 329 333 336 336 334 336 338 339 339
310 315 316 313 316 319 316 317 317 316 318 320 321 321 322 327 336 341 342 343 343 342 342 342 339 335 335 334 331 328 328 329 327 321 320 327 329 332 336 335 336 336 336
309 309 309 310 312 315 318 316 315 314 314 315 317 317 320 323 328 333 339 341 340 341 341 342 340 338 335 335 333 331 329 327 327 323 319 322 326 326 329 333 332 331 329
Wind_Speed
9 10 14 15 17 18 19 19 17 17 17 17 18 18 17 17 17 17 17 16 16 15 15 14 14 13 13 13 13 11 11 10 11 12 11 10 10 9 14 13 11 8 10
15 13 15 15 18 18 18 18 18 16 16 17 17 17 16 16 16 15 15 15 15 14 14 14 14 14 13 12 11 10 9 9 8 10 10 9 9 9 12 12 12 8 9
16 14 14 15 17 18 17 17 17 16 17 17 16 16 15 14 14 14 14 14 13 14 13 13 13 12 11 10 9 8 7 7 6 5 8 4 3 9 11 12 12 10 9
16 13 13 15 17 18 18 17 16 15 16 16 16 15 15 13 14 14 13 13 13 13 13 13 12 11 10 8 6 5 5 4 3 2 2 4 5 9 10 11 11 10 10
12 11 13 14 17 18 19 18 17 16 16 16 16 15 14 13 13 13 13 12 12 12 12 12 12 10 9 6 4 2 1 1 1 1 4 6 5 8 11 11 10 10 10
9 12 15 13 15 16 17 18 17 16 17 17 15 14 14 13 12 12 12 11 11 11 11 11 10 10 9 6 4 1 2 5 7 4 4 6 7 12 13 11 11 10 10
10 10 12 13 12 14 16 16 17 16 15 16 16 14 13 12 11 10 9 9 9 9 10 10 9 8 7 6 4 3 4 5 3 3 4 4 4 12 12 12 11 10 9
14 11 12 14 13 13 14 15 15 15 15 14 15 16 14 12 11 10 9 9 9 9 9 8 8 8 8 7 6 6 6 6 3 1 3 3 7 10 12 11 10 10 10
15 15 11 10 12 14 14 13 14 14 14 15 14 13 15 15 12 11 10 10 10 10 9 9 8 9 8 8 8 7 8 8 4 2 4 3 10 12 12 12 11 11 10
12 14 15 13 11 9 8 13 13 13 14 14 15 14 13 13 15 13 11 10 11 11 10 10 10 9 9 9 10 10 9 9 5 4 4 3 10 13 13 12 13 12 11
6 9 11 13 14 13 9 9 11 14 14 14 14 16 13 8 8 11 11 12 11 12 12 12 11 11 11 11 11 10 10 4 5 4 3 9 12 15 13 12 12 11 11
10 9 9 10 11 10 9 11 9 7 6 6 7 8 6 6 7 10 11 14 14 13 13 13 13 12 10 4 4 9 4 5 5 4 4 11 12 15 15 13 12 11 12
14 10 12 11 12 14 10 8 7 7 8 7 8 8 6 6 5 5 3 6 6 13 5 9 7 5 7 5 5 5 5 5 4 4 6 11 15 16 16 14 13 12 12
13 14 12 12 14 13 9 10 10 9 9 9 10 10 7 5 6 6 5 7 6 5 7 6 5 6 7 7 7 7 7 5 4 4 6 13 15 17 17 15 15 14 13
11 14 15 14 14 15 13 9 8 8 8 10 10 12 9 8 8 7 7 7 8 8 8 8 7 7 8 9 8 9 8 7 8 5 4 13 17 17 18 17 17 16 15
7 16 15 16 11 6 7 9 8 8 9 8 9 11 14 10 9 8 7 8 9 9 8 7 9 9 10 10 12 12 12 9 9 8 5 6 18 20 17 16 16 15 15
6 8 11 11 6 2 3 6 7 7 8 9 8 11 13 12 10 10 8 9 9 8 9 7 8 5 4 4 9 7 7 9 10 11 8 6 8 16 15 16 15 15 16
9 7 6 7 8 5 6 5 4 4 5 7 7 8 13 15 13 11 9 9 9 8 7 6 6 7 8 7 7 8 8 6 6 7 6 5 6 6 11 15 14 14 15
11 11 9 9 10 11 8 5 5 6 4 5 4 5 10 12 14 12 11 10 8 9 7 7 6 5 6 8 9 8 8 6 6 8 8 6 6 6 6 9 16 16 14
6 6 6 6 8 8 5 5 1 1 3 3 4 5 7 6 11 9 9 8 7 7 9 7 10 6 7 9 9 9 6 5 5 6 9 7 7 8 6 7 5 7 12
9 9 9 9 5 2 4 3 3 3 3 4 4 5 7 7 9 8 10 10 9 12 12 11 10 11 10 5 3 4 4 6 5 6 6 9 9 9 6 7 4 4 4
8 8 8 8 8 5 4 2 2 0 2 3 4 5 6 6 9 11 11 13 12 12 15 11 12 7 8 8 10 1 4 6 4 7 8 9 10 7 7 6 6 7 6
8 7 8 7 7 5 5 3 3 3 3 3 2 2 5 8 8 10 13 13 16 12 12 14 15 18 14 6 12 6 3 6 2 4 9 9 8 4 5 5 6 5 5
7 8 7 6 5 4 4 4 3 2 2 3 3 3 5 7 11 12 12 13 14 12 15 13 13 15 17 14 4 11 4 4 5 2 3 5 6 7 6 3 5 5 5
7 7 6 6 5 4 3 4 3 3 4 4 4 7 6 6 9 13 13 14 15 12 17 16 13 14 15 15 14 7 12 4 3 3 4 4 1 4 5 5 5 5 5
5 7 7 7 4 4 4 4 5 6 6 4 4 5 5 7 7 11 12 12 15 15 16 17 16 17 15 15 13 14 12 12 10 4 1 3 6 3 4 4 5 5 4
Wind_Direction
153 156 157 146 134 126 123 120 115 115 114 111 109 109 111 113 116 118 119 117 117 119 119 115 114 116 117 117 114 110 110 108 110 113 112 110 105 81 124 107 102 94 105
140 149 157 150 138 131 128 126 125 125 123 119 115 114 114 116 119 121 118 117 118 122 124 124 125 128 126 123 114 109 109 108 110 120 114 114 119 109 117 112 110 112 104
140 148 148 154 140 134 130 129 129 130 128 122 119 118 118 119 119 119 120 122 125 129 127 126 129 132 126 119 120 118 113 107 105 112 123 131 140 132 128 125 123 121 117
140 145 141 155 143 136 134 133 132 134 131 126 125 125 125 127 126 124 124 127 133 133 132 134 137 133 130 132 122 104 94 102 118 144 203 193 181 156 148 137 132 132 131
135 137 138 153 147 143 141 141 140 142 138 136 136 135 135 138 137 136 137 138 141 139 140 144 146 144 140 133 122 115 86 325 21 18 222 213 190 173 161 147 146 152 144
133 135 135 151 151 148 147 147 146 148 146 143 143 143 144 147 148 147 147 147 147 148 150 152 152 149 148 150 155 216 314 327 353 1 342 169 187 178 172 168 160 155 157
137 137 134 145 154 152 152 152 151 152 153 151 149 151 152 154 156 154 151 148 149 152 155 160 160 159 155 164 182 229 287 309 330 1 5 149 225 182 174 173 164 167 170
138 138 141 150 156 157 159 157 157 156 156 158 159 156 159 161 164 164 160 160 160 163 164 169 171 171 173 183 197 227 250 271 303 317 301 252 218 198 181 178 172 178 185
146 143 146 155 164 161 161 162 160 161 163 162 164 168 165 166 171 175 174 174 174 172 171 176 184 188 190 196 209 230 253 263 281 300 275 244 207 211 192 187 184 190 195
151 156 157 157 157 156 164 166 166 168 170 170 171 172 177 178 174 180 184 188 185 182 182 186 196 199 202 209 218 226 242 260 264 256 262 235 209 220 205 199 192 196 201
156 164 165 166 161 157 156 172 174 179 179 179 180 178 173 176 186 189 187 192 194 192 192 194 201 207 209 217 225 231 237 239 248 237 236 246 223 219 217 208 207 203 209
168 184 177 166 163 160 165 165 170 183 182 187 190 186 185 190 189 188 196 198 195 200 199 202 206 212 217 225 242 246 237 235 242 244 239 241 213 216 218 210 210 211 213
170 179 183 175 171 171 177 173 176 176 180 186 191 189 193 188 193 198 201 203 206 207 205 208 209 209 210 212 232 238 238 236 232 235 246 244 221 214 220 213 207 217 219
176 181 174 181 184 189 171 178 184 179 182 181 187 192 187 189 201 203 202 205 200 207 210 208 209 212 220 223 219 231 231 229 231 230 234 246 211 213 216 213 209 215 221
169 178 176 178 193 197 181 184 173 183 189 190 179 184 194 209 203 204 211 205 205 203 203 211 211 214 222 224 228 228 235 232 240 239 221 236 209 217 220 213 213 212 217
157 172 175 193 193 195 183 195 179 184 185 200 188 186 198 200 205 206 211 226 216 213 211 216 221 216 223 212 223 213 220 226 226 228 227 224 207 213 219 219 220 218 221
171 147 180 186 175 203 220 198 204 194 184 192 199 193 196 205 211 212 209 208 222 234 225 218 226 233 237 261 256 255 249 240 225 222 210 207 220 221 219 220 222 221 223
110 150 168 194 207 216 228 189 190 192 206 212 201 199 201 204 209 208 217 217 216 215 218 230 234 238 229 221 244 242 239 235 253 260 237 215 203 215 233 235 228 226 225
143 146 164 190 211 222 208 206 195 191 198 214 242 219 221 211 211 213 217 220 202 208 212 215 218 205 234 241 233 239 237 230 234 254 251 238 225 220 218 225 229 229 223
56 64 58 33 29 28 9 349 320 217 221 172 213 221 225 226 225 225 230 227 212 203 212 207 217 218 227 235 244 238 233 240 225 229 241 234 228 226 224 232 227 239 231
65 68 73 106 128 89 47 41 21 1 330 313 262 250 235 218 236 232 238 236 227 228 220 209 216 214 230 201 180 265 252 236 239 238 246 238 232 231 224 234 229 219 228
107 108 94 92 91 85 97 118 102 83 306 271 293 279 270 242 231 225 221 238 229 232 234 212 207 214 229 191 223 139 252 256 249 225 223 230 224 209 211 217 224 211 205
89 94 88 81 78 73 80 47 22 21 12 5 300 272 274 273 251 232 235 233 240 232 229 227 218 218 230 216 210 161 199 230 217 214 218 212 220 204 222 217 224 207 181
112 115 103 90 73 78 78 86 110 170 221 235 249 257 277 277 281 271 245 242 235 241 242 231 233 225 221 226 204 231 207 149 211 280 281 225 201 217 213 182 202 195 191
126 127 127 121 124 165 159 154 153 211 238 255 277 290 285 272 267 267 264 254 246 233 244 244 229 228 226 225 221 200 225 222 235 171 219 232 202 214 194 182 186 198 197
150 152 158 151 168 176 180 191 210 230 254 277 275 285 283 296 289 279 263 257 259 245 239 243 241 236 227 228 222 217 215 211 209 184 186 225 208 231 187 184 183 196 193